Baseball 板


LINE

打者翔平 https://i.imgur.com/UccuhQB.jpg ┌──┬─┬─┬─┬──┬─┬─┬─┬─┬─┬───┐ │ AVG│AB│ R│ H│ RBI│2B│3B│HR│BB│ K│ OPS │ ├──┼─┼─┼─┼──┼─┼─┼─┼─┼─┼───┤ │.307│ 4│ 1│ 1│ 1 │ 0│ 0│ 0│ 1│ 0│1.078 │ └──┴─┴─┴─┴──┴─┴─┴─┴─┴─┴───┘ 第一打席: 1B (EV:82.2 mph) 第二打席: FO (EV:97 mph) 第三打席: FO (EV:109.1 mph) 第四打席: GO (EV:105.9 mph) 第五打席: IBB 第一打席打出带有打点的穿越安打 其他打击机会击球初速都不错,可惜仰角不是太高就是太低 第五打席被敬远保送,一上垒马上盗上二垒(16) 最终天使7:5打败巨人,中止连败 明天投手大谷将出赛面对巨人 加油啦 - 大 谷翔平 https://i.imgur.com/h30n6VB.jpg --



※ 发信站: 批踢踢实业坊(ptt.cc), 来自: 180.217.130.47 (台湾)
※ 文章网址: https://webptt.com/cn.aspx?n=bbs/Baseball/M.1691554528.A.A2B.html
1F:→ ssss06: 赢了!!!!!!! 08/09 12:15
2F:推 cplzgr: 明天gogo 08/09 12:15
3F:推 pinky841118: 明天加油啊! 08/09 12:15
4F:推 Ferrari360: 明天10胜+41轰吧 08/09 12:16
5F:推 botbotbot: 加油 08/09 12:16
6F:推 nanamiiwill: 终於 08/09 12:16
7F:推 nwg2k562: 卡弹了 08/09 12:16
8F:推 Jaguarsu: 明天开轰+10胜ok吧 08/09 12:16
9F:→ jiaxie: 笑死出局,助理就长打 08/09 12:16
10F:推 lmf770410: 一直IBB 08/09 12:16
11F:推 Aurora5566: 明天加油! 08/09 12:16
12F:推 edhuang: 没集到气但几乎都有了 明天加油 08/09 12:16
13F:推 Jerry7766: 水枪翔平 08/09 12:16
14F:推 wi90527: 明天加油! 08/09 12:16
15F:推 devil157: A大回来了 08/09 12:17
16F:推 polanco: 明天加油啦 08/09 12:17
17F:嘘 ggbi4zzz: 休息吧!拜托 08/09 12:17
18F:推 starry3170: 明天加油! 08/09 12:17
19F:→ yankees733: 天使今天赢 季後赛机率上升了吧 08/09 12:17
20F:推 yangtsur: 拜托明天胜投 08/09 12:17
21F:推 kentket: 今天靠朱莉啦 继续 08/09 12:17
22F:推 WasJohnWall: 水枪翔平 08/09 12:17
23F:推 yaki049: 投手大谷明天加油 08/09 12:17
24F:推 doa2: 今年10胜50轰就够了,反正天使扶不起 08/09 12:17
25F:推 piaolz: 明天加油! 08/09 12:17
26F:推 killua0209: 有安打的初速最低 08/09 12:18
27F:→ BaRanKa: 亚洲之光 10胜+42轰 08/09 12:18
28F:推 pounil: HR不行了 08/09 12:18
29F:推 TonyGonsolin: 明天胜投+双响 08/09 12:18
30F:→ b99202071: 唉 连败没了 08/09 12:18
31F:→ Adiakyan: 这样是不是又给内文信心大增加了 08/09 12:18
32F:推 acnb: 感动 08/09 12:19
33F:推 sony0223098: 内文:季後赛来了 08/09 12:19
34F:推 JimK0511: Olson >>>>>>>> 08/09 12:19
35F:推 immence: 小水枪 08/09 12:20
36F:推 myeunji: 觉得会9胜40轰结束今年赛季 08/09 12:20
37F:推 sixsix666: 内瓜:我们要打季後赛惹 08/09 12:21
38F:推 henry1915: Ops持续降落 08/09 12:21
39F:推 peter6666712: 希望别再抽筋了 08/09 12:21
40F:推 daisyung: 翔平小水枪 08/09 12:21
41F:推 avcddd: 终於靠我们谷神终止七连败 08/09 12:22
42F:推 a2350221: 健康就好 大谷加油 08/09 12:22
43F:推 ZIQQ001: 笑死 打不出全垒ㄉㄚ 08/09 12:22
44F:推 lafeelbarth: 士气大振 08/09 12:22
45F:推 gn01948540: 水枪平 08/09 12:23
46F:推 JazMaHoJo: 能撑几局不抽筋 08/09 12:23
47F:推 chyng1202: 16连战太累了啦 休息一下就有HR了 初速都还在 08/09 12:24
48F:推 kickvsbrad: 天使信痒 季後赛不是梦 08/09 12:24
49F:推 ak478998: 止败小小开心 08/09 12:25
50F:推 Derp: MVP好凉 08/09 12:25
51F:→ AhCheng: 没轰笑死 08/09 12:28
52F:→ killua0209: Olson除了打点赢外,其他都输吧?! 08/09 12:29
53F:推 s155260: 小水枪 08/09 12:29
54F:推 Getbackers: 每天一安,公务员化 08/09 12:30
55F:推 sixsix666: 刚刚看升到1.6%了,狂贺宇宙猴要来了,大家抓稳了 08/09 12:30
56F:推 huangjyuan: 明天巨人先发还没排出来喔 假先发? 08/09 12:30
57F:推 a39208491: 强 08/09 12:30
58F:推 kim: 一直不给他休真的莫名奇妙,除了这场之外前面也七 08/09 12:31
59F:→ kim: 连败,操成这样有什麽用 08/09 12:31
60F:推 bob621024: 终於赢 08/09 12:31
61F:推 marx93521: 笑死卡弹还是要IBB 08/09 12:33
62F:推 yuan0119: 又给内文希望了,大谷准备天天出赛了 08/09 12:33
63F:推 Zeitgeist: 一波连胜要开始了吗 08/09 12:35
64F:推 h1y2c3y2h1: 看来内文要的极限还没到 继续操 08/09 12:36
65F:推 FatZiiiii: 卡弹有点久了喔 08/09 12:36
66F:推 jonwei: 明天加油! 08/09 12:38
67F:→ YDSK: 赢一场就爽成这样… 08/09 12:40
68F:推 halfmonster: 明天差不多该双响炮了 08/09 12:41
69F:推 youngpaper: 天使一生悬命哈哈哈 08/09 12:42
70F:推 lookers: 本人说累还不是不给休还想推责任啊 08/09 12:44
71F:推 a7788783: 直江准备好了 08/09 12:44
72F:推 KKwilliam: 十月就休息了 没事的 08/09 12:49
73F:推 ils0104: 明天投球加油!健康就好 08/09 12:50
74F:推 RaverIan: 赞喔 季後赛还是没你的份 08/09 12:50
75F:推 activeactive: 明天加油!!! 08/09 12:52
76F:→ koj: 笑死,打完一安就开始混了,还好球队赢球 08/09 12:56
77F:推 pottr50911: 15胜54轰结束赛季 08/09 12:58
78F:→ OneSong: 低於1%才赢喔 08/09 13:03
79F:推 ayachyan: 开始拼20-20 08/09 13:08
80F:推 benlinskyin: 笑死 没K 08/09 13:10
81F:推 twtpcsilence: 笑死 又没轰出去 08/09 13:17
82F:推 hornets1221: 开始一波连胜 08/09 13:25
83F:推 Krishna: 我没K 布鲁biu 布鲁biu 08/09 13:36
84F:推 RicFlair: 水枪翔平笑死 08/09 13:38
85F:推 sfw0199: 笑死 不会打全垒打 08/09 13:53
86F:推 nihow78: 快连轰 拼50 08/09 14:04
87F:推 kauw: 变成水枪了 08/09 14:11
88F:推 joewang85: 枪平 08/09 14:26
89F:推 pop810227: 50轰15胜然去道奇 别再浪费时间了 08/09 14:39
90F:推 manygod: 完封 三响炮 我就吃麦当劳 08/09 14:49
91F:→ killua0209: 明天巨人又是假先发 08/09 14:54
92F:推 kauw: 最近都有球打比较多但轰不出去也没办法 08/09 14:59
93F:→ jim272272: 一朗化 08/09 15:03
94F:推 payneblue: 最近咬得扎实但也飞不远 是不是太操劳了 08/09 15:03
95F:推 northlight: 我谷加油 08/09 15:08
96F:→ killua0209: 提早开机打WBC,开季至今又只休2场,当然累坏了 08/09 15:17
97F:推 usoko: 好好休息好吗 08/09 15:22
98F:推 yaieki: 能一直健健康康打球比较重要 08/09 15:32
99F:→ flicker36: 终於 08/09 15:39
100F:推 wenfei: 笑死公务员 08/09 16:33
101F:推 ScotchWhisky: 笑死 敢不敢明天双响加胜投啦 08/09 17:37
102F:推 helacell: 大谷明天加油~ 08/09 18:10
103F:推 Daniel0712: 笑死没全垒打 08/09 21:46
104F:推 lhi0417: 加油吧! 08/09 23:09
105F:→ Brucetk: 今天还有盗垒勒 08/09 23:21







like.gif 您可能会有兴趣的文章
icon.png[问题/行为] 猫晚上进房间会不会有憋尿问题
icon.pngRe: [闲聊] 选了错误的女孩成为魔法少女 XDDDDDDDDDD
icon.png[正妹] 瑞典 一张
icon.png[心得] EMS高领长版毛衣.墨小楼MC1002
icon.png[分享] 丹龙隔热纸GE55+33+22
icon.png[问题] 清洗洗衣机
icon.png[寻物] 窗台下的空间
icon.png[闲聊] 双极の女神1 木魔爵
icon.png[售车] 新竹 1997 march 1297cc 白色 四门
icon.png[讨论] 能从照片感受到摄影者心情吗
icon.png[狂贺] 贺贺贺贺 贺!岛村卯月!总选举NO.1
icon.png[难过] 羡慕白皮肤的女生
icon.png阅读文章
icon.png[黑特]
icon.png[问题] SBK S1安装於安全帽位置
icon.png[分享] 旧woo100绝版开箱!!
icon.pngRe: [无言] 关於小包卫生纸
icon.png[开箱] E5-2683V3 RX480Strix 快睿C1 简单测试
icon.png[心得] 苍の海贼龙 地狱 执行者16PT
icon.png[售车] 1999年Virage iO 1.8EXi
icon.png[心得] 挑战33 LV10 狮子座pt solo
icon.png[闲聊] 手把手教你不被桶之新手主购教学
icon.png[分享] Civic Type R 量产版官方照无预警流出
icon.png[售车] Golf 4 2.0 银色 自排
icon.png[出售] Graco提篮汽座(有底座)2000元诚可议
icon.png[问题] 请问补牙材质掉了还能再补吗?(台中半年内
icon.png[问题] 44th 单曲 生写竟然都给重复的啊啊!
icon.png[心得] 华南红卡/icash 核卡
icon.png[问题] 拔牙矫正这样正常吗
icon.png[赠送] 老莫高业 初业 102年版
icon.png[情报] 三大行动支付 本季掀战火
icon.png[宝宝] 博客来Amos水蜡笔5/1特价五折
icon.pngRe: [心得] 新鲜人一些面试分享
icon.png[心得] 苍の海贼龙 地狱 麒麟25PT
icon.pngRe: [闲聊] (君の名は。雷慎入) 君名二创漫画翻译
icon.pngRe: [闲聊] OGN中场影片:失踪人口局 (英文字幕)
icon.png[问题] 台湾大哥大4G讯号差
icon.png[出售] [全国]全新千寻侘草LED灯, 水草

请输入看板名称,例如:WOW站内搜寻

TOP